Weather in Birganj

Nepal     27°02′00″N   84°53′13″E
temp.,
°C
wind,
m/s
gust,
m/s
humid.,
%
clouds,
%
prec.,
mm/h
press.,
hPa
HPBL,
m
8 december, wed
wed823:45+19nw33630 0.0 101643
02:45+18nw11660 0.0 101511
05:45+17nnw11680 0.0 101511
08:45+20ene11540 0.0 1018168
11:45+25s11410 0.0 1018778
14:45+27wnw22330 0.0 10151293
17:45+22wnw22440 0.0 101512
20:45+19nnw33510 0.0 101733
9 december, thu
thu923:45+18nnw22565 0.0 101815
02:45+17nnw225831 0.0 101714
05:45+16nnw225818 0.0 101711
08:45+20nw12475 0.0 1020140
11:45+25w23330 0.0 1019812
14:45+27wnw34260 0.0 10161340
17:45+21wnw34360 0.0 101736
20:45+18nw33420 0.0 101927
10 december, fri
fri1023:45+17nw33460 0.0 101926
02:45+16nw22490 0.0 101718
05:45+15nw33540 0.0 101724
08:45+19wnw34480 0.0 1019174
11:45+25w56280 0.0 1018748
14:45+26wnw68250 0.0 10151299
17:45+20wnw46360 0.0 101585
20:45+17nw34430 0.0 101742
11 december, sat
sat1123:45+15wnw33470 0.0 101727
02:45+14wnw22510 0.0 101517
05:45+13wnw22550 0.0 101611
08:45+17w22470 0.0 1019166
11:45+22w22410 0.0 1018706
14:45+24w22340 0.0 10151122
17:45+19nnw22460 0.0 101611
20:45+17n22510 0.0 101811
12 december, sun
sun1223:45+16n12550 0.0 101811
02:45+15nnw11580 0.0 101710
05:45+14nnw11610 0.0 101710
08:45+17n00510 0.0 1019142
11:45+23wsw21400 0.0 1018716
14:45+24w21320 0.0 10151140
17:45+20wnw22421 0.0 101511
20:45+17nnw22510 0.0 101718